Ft Riley, KS

8:09 AM CDT on June 28, 2017 (GMT -0500)
Marshall Army Air Field

Weather History for KFRI - October, 2012

Change the Weather History Date:

Tuesday, October 9, 2012

  Actual Average (KMHK) Record (KMHK)
Temperature  
Mean Temperature 51 °F -  
Max Temperature 62 °F 70 °F 84 °F (2007)
Min Temperature 37 °F 43 °F 19 °F (2000)
Degree Days  
Heating Degree Days 14    
Growing Degree Days 1 (Base 50)    
Moisture  
Dew Point 36 °F    
Average Humidity 55    
Maximum Humidity 74    
Minimum Humidity 35    
Precipitation  
Precipitation 0.00 in - - ()
Sea Level Pressure  
Sea Level Pressure 29.97 in    
Wind  
Wind Speed 11 mph (WSW)    
Max Wind Speed 18 mph    
Max Gust Speed 23 mph    
Visibility 10 miles    
Events      
Averages and records for this station are not official NWS values.
T = Trace of Precipitation, MM = Missing Value Source: NWS Daily Summary

Daily Weather History Graph

Daily Weather History Graph

Search for Another Location

Airport or City:

Trip Planner

Search our weather history database for the weather conditions in past years. The results will help you decide how hot, cold, wet, or windy it might be!

Date:

Astronomy

Oct. 09, 2012 Rise Set
Actual Time 7:31 AM CDT 6:56 PM CDT
Civil Twilight 7:04 AM CDT 7:23 PM CDT
Nautical Twilight 6:33 AM CDT 7:54 PM CDT
Astronomical Twilight 6:02 AM CDT 8:25 PM CDT
Moon 1:11 AM CDT (10/9) 3:22 PM CDT (10/9)
Length of Visible Light 12h 18m
Length of Day
11h 25m
Last Quarter, 36% of the Moon is Illuminated
Oct 9
Last Quarter
Oct 15
New
Oct 21
First Quarter
Oct 29
Full
Nov 6
Last Quarter

Hourly Weather History & Observations

Time (CDT) Temp. Dew Point Humidity Pressure Visibility Wind Dir Wind Speed Gust Speed Precip Events Conditions
12:55 AM 53.8 °F 35.6 °F 50% 29.90 in 10.0 mi SSW 18.4 mph 23.0 mph N/A   Clear
1:55 AM 52.7 °F 35.8 °F 53% 29.89 in 10.0 mi SSW 16.1 mph 23.0 mph N/A   Clear
2:55 AM 51.1 °F 36.0 °F 56% 29.88 in 10.0 mi SSW 11.5 mph - N/A   Clear
3:55 AM 49.3 °F 36.5 °F 61% 29.87 in 10.0 mi SSW 9.2 mph - N/A   Clear
4:55 AM 48.6 °F 36.5 °F 63% 29.87 in 10.0 mi SSW 8.1 mph - N/A   Clear
5:55 AM 47.8 °F 36.5 °F 65% 29.86 in 10.0 mi SSW 8.1 mph - N/A   Clear
6:55 AM 46.6 °F 36.3 °F 67% 29.86 in 10.0 mi SSW 4.6 mph - N/A   Clear
7:55 AM 46.6 °F 37.0 °F 69% 29.87 in 10.0 mi SSW 4.6 mph - N/A   Clear
8:55 AM 51.1 °F 39.4 °F 64% 29.89 in 10.0 mi SSW 8.1 mph - N/A   Clear
9:55 AM 54.7 °F 40.6 °F 59% 29.91 in 10.0 mi WSW 6.9 mph - N/A   Clear
10:55 AM 58.5 °F 42.3 °F 55% 29.91 in 10.0 mi WSW 8.1 mph - N/A   Clear
11:55 AM 61.2 °F 42.3 °F 50% 29.92 in 10.0 mi NNW 9.2 mph - N/A   Clear
12:55 PM 61.2 °F 40.5 °F 47% 29.92 in 10.0 mi Variable 5.8 mph - N/A   Clear
1:55 PM 61.0 °F 39.6 °F 45% 29.93 in 10.0 mi North 13.8 mph 23.0 mph N/A   Clear
2:55 PM 60.8 °F 42.4 °F 51% 29.96 in 10.0 mi North 15.0 mph 21.9 mph N/A   Overcast
3:55 PM 58.6 °F 42.8 °F 56% 29.99 in 10.0 mi North 9.2 mph 21.9 mph N/A   Overcast
4:55 PM 58.8 °F 39.7 °F 49% 30.01 in 10.0 mi NNE 15.0 mph 19.6 mph N/A   Overcast
5:55 PM 59.2 °F 38.8 °F 47% 30.03 in 10.0 mi NNE 8.1 mph - N/A   Scattered Clouds
6:55 PM 55.8 °F 32.2 °F 41% 30.05 in 10.0 mi North 9.2 mph - N/A   Clear
7:55 PM 51.8 °F 25.0 °F 35% 30.09 in 10.0 mi North 8.1 mph - N/A   Clear
8:55 PM 48.9 °F 25.9 °F 41% 30.12 in 8.0 mi Calm Calm - N/A   Clear
9:55 PM 43.2 °F 27.0 °F 53% 30.15 in 10.0 mi Calm Calm - N/A   Clear
10:55 PM 41.2 °F 29.3 °F 63% 30.17 in 10.0 mi Calm Calm - N/A   Clear
11:55 PM 37.8 °F 30.0 °F 74% 30.18 in 10.0 mi Calm Calm - N/A   Clear